Date_Time,Julian_Date,Latitude,Longitude,Instrument_Depth,Water_Temperature
(yyyy-mm-dd hh:mn:ss UTC),(JD),(+ deg. North),(+ deg. East),(m),(deg. C)
1985-07-31 20:00:00 UTC,2446278.333333,25.7150,-84.8850,1100,4.1700
1985-07-31 20:20:00 UTC,2446278.347222,25.7150,-84.8850,1100,4.0900
1985-07-31 20:40:00 UTC,2446278.361111,25.7150,-84.8850,1100,4.1010
1985-07-31 21:00:00 UTC,2446278.375000,25.7150,-84.8850,1100,4.1000
1985-07-31 21:20:00 UTC,2446278.388889,25.7150,-84.8850,1100,4.1000
1985-07-31 21:40:00 UTC,2446278.402778,25.7150,-84.8850,1100,4.1200
1985-07-31 22:00:00 UTC,2446278.416667,25.7150,-84.8850,1100,4.1440
1985-07-31 22:20:00 UTC,2446278.430556,25.7150,-84.8850,1100,4.0970
1985-07-31 22:40:00 UTC,2446278.444444,25.7150,-84.8850,1100,4.0970
1985-07-31 23:00:00 UTC,2446278.458333,25.7150,-84.8850,1100,4.1310
1985-07-31 23:20:00 UTC,2446278.472222,25.7150,-84.8850,1100,4.0980
1985-07-31 23:40:00 UTC,2446278.486111,25.7150,-84.8850,1100,4.1250
1985-08-01 00:00:00 UTC,2446278.500000,25.7150,-84.8850,1100,4.0970
1985-08-01 00:20:00 UTC,2446278.513889,25.7150,-84.8850,1100,4.1230
1985-08-01 00:40:00 UTC,2446278.527778,25.7150,-84.8850,1100,4.1410
1985-08-01 01:00:00 UTC,2446278.541667,25.7150,-84.8850,1100,4.1480
1985-08-01 01:20:00 UTC,2446278.555556,25.7150,-84.8850,1100,4.1180
1985-08-01 01:40:00 UTC,2446278.569444,25.7150,-84.8850,1100,4.1440
1985-08-01 02:00:00 UTC,2446278.583333,25.7150,-84.8850,1100,4.1740
1985-08-01 02:20:00 UTC,2446278.597222,25.7150,-84.8850,1100,4.1480
1985-08-01 02:40:00 UTC,2446278.611111,25.7150,-84.8850,1100,4.1510
1985-08-01 03:00:00 UTC,2446278.625000,25.7150,-84.8850,1100,4.1420
1985-08-01 03:20:00 UTC,2446278.638889,25.7150,-84.8850,1100,4.1510
1985-08-01 03:40:00 UTC,2446278.652778,25.7150,-84.8850,1100,4.1750
1985-08-01 04:00:00 UTC,2446278.666667,25.7150,-84.8850,1100,4.1470
1985-08-01 04:20:00 UTC,2446278.680556,25.7150,-84.8850,1100,4.1510
1985-08-01 04:40:00 UTC,2446278.694444,25.7150,-84.8850,1100,4.1500
1985-08-01 05:00:00 UTC,2446278.708333,25.7150,-84.8850,1100,4.1510
1985-08-01 05:20:00 UTC,2446278.722222,25.7150,-84.8850,1100,4.1390
1985-08-01 05:40:00 UTC,2446278.736111,25.7150,-84.8850,1100,4.1420
1985-08-01 06:00:00 UTC,2446278.750000,25.7150,-84.8850,1100,4.1200
1985-08-01 06:20:00 UTC,2446278.763889,25.7150,-84.8850,1100,4.1590
1985-08-01 06:40:00 UTC,2446278.777778,25.7150,-84.8850,1100,4.1820
1985-08-01 07:00:00 UTC,2446278.791667,25.7150,-84.8850,1100,4.1500
1985-08-01 07:20:00 UTC,2446278.805556,25.7150,-84.8850,1100,4.1860
1985-08-01 07:40:00 UTC,2446278.819444,25.7150,-84.8850,1100,4.1780
1985-08-01 08:00:00 UTC,2446278.833333,25.7150,-84.8850,1100,4.2000
1985-08-01 08:20:00 UTC,2446278.847222,25.7150,-84.8850,1100,4.1640
1985-08-01 08:40:00 UTC,2446278.861111,25.7150,-84.8850,1100,4.1730
1985-08-01 09:00:00 UTC,2446278.875000,25.7150,-84.8850,1100,4.1400
1985-08-01 09:20:00 UTC,2446278.888889,25.7150,-84.8850,1100,4.1400
1985-08-01 09:40:00 UTC,2446278.902778,25.7150,-84.8850,1100,4.1420
1985-08-01 10:00:00 UTC,2446278.916667,25.7150,-84.8850,1100,4.1200
1985-08-01 10:20:00 UTC,2446278.930556,25.7150,-84.8850,1100,4.1440
1985-08-01 10:40:00 UTC,2446278.944444,25.7150,-84.8850,1100,4.1370
1985-08-01 11:00:00 UTC,2446278.958333,25.7150,-84.8850,1100,4.1700
1985-08-01 11:20:00 UTC,2446278.972222,25.7150,-84.8850,1100,4.1350
1985-08-01 11:40:00 UTC,2446278.986111,25.7150,-84.8850,1100,4.1520
1985-08-01 12:00:00 UTC,2446279.000000,25.7150,-84.8850,1100,4.1400
1985-08-01 12:20:00 UTC,2446279.013889,25.7150,-84.8850,1100,4.1400
1985-08-01 12:40:00 UTC,2446279.027778,25.7150,-84.8850,1100,4.1370
1985-08-01 13:00:00 UTC,2446279.041667,25.7150,-84.8850,1100,4.1700
1985-08-01 13:20:00 UTC,2446279.055556,25.7150,-84.8850,1100,4.1340
1985-08-01 13:40:00 UTC,2446279.069444,25.7150,-84.8850,1100,4.1390
1985-08-01 14:00:00 UTC,2446279.083333,25.7150,-84.8850,1100,4.1500
1985-08-01 14:20:00 UTC,2446279.097222,25.7150,-84.8850,1100,4.1140
1985-08-01 14:40:00 UTC,2446279.111111,25.7150,-84.8850,1100,4.1230
1985-08-01 15:00:00 UTC,2446279.125000,25.7150,-84.8850,1100,4.0900
1985-08-01 15:20:00 UTC,2446279.138889,25.7150,-84.8850,1100,4.1060
1985-08-01 15:40:00 UTC,2446279.152778,25.7150,-84.8850,1100,4.1210
1985-08-01 16:00:00 UTC,2446279.166667,25.7150,-84.8850,1100,4.1200
1985-08-01 16:20:00 UTC,2446279.180556,25.7150,-84.8850,1100,4.1040
1985-08-01 16:40:00 UTC,2446279.194444,25.7150,-84.8850,1100,4.1200
1985-08-01 17:00:00 UTC,2446279.208333,25.7150,-84.8850,1100,4.1150
1985-08-01 17:20:00 UTC,2446279.222222,25.7150,-84.8850,1100,4.1110
1985-08-01 17:40:00 UTC,2446279.236111,25.7150,-84.8850,1100,4.1200
1985-08-01 18:00:00 UTC,2446279.250000,25.7150,-84.8850,1100,4.1200
1985-08-01 18:20:00 UTC,2446279.263889,25.7150,-84.8850,1100,4.1200
1985-08-01 18:40:00 UTC,2446279.277778,25.7150,-84.8850,1100,4.1200
1985-08-01 19:00:00 UTC,2446279.291667,25.7150,-84.8850,1100,4.0970
1985-08-01 19:20:00 UTC,2446279.305556,25.7150,-84.8850,1100,4.1000
1985-08-01 19:40:00 UTC,2446279.319444,25.7150,-84.8850,1100,4.1000
1985-08-01 20:00:00 UTC,2446279.333333,25.7150,-84.8850,1100,4.0880
1985-08-01 20:20:00 UTC,2446279.347222,25.7150,-84.8850,1100,4.0920
1985-08-01 20:40:00 UTC,2446279.361111,25.7150,-84.8850,1100,4.0710
1985-08-01 21:00:00 UTC,2446279.375000,25.7150,-84.8850,1100,4.0940
1985-08-01 21:20:00 UTC,2446279.388889,25.7150,-84.8850,1100,4.0890
1985-08-01 21:40:00 UTC,2446279.402778,25.7150,-84.8850,1100,4.0990
1985-08-01 22:00:00 UTC,2446279.416667,25.7150,-84.8850,1100,4.0880
1985-08-01 22:20:00 UTC,2446279.430556,25.7150,-84.8850,1100,4.0890
1985-08-01 22:40:00 UTC,2446279.444444,25.7150,-84.8850,1100,4.1000
1985-08-01 23:00:00 UTC,2446279.458333,25.7150,-84.8850,1100,4.0700
1985-08-01 23:20:00 UTC,2446279.472222,25.7150,-84.8850,1100,4.1390
1985-08-01 23:40:00 UTC,2446279.486111,25.7150,-84.8850,1100,4.1210
1985-08-02 00:00:00 UTC,2446279.500000,25.7150,-84.8850,1100,4.1550
1985-08-02 00:20:00 UTC,2446279.513889,25.7150,-84.8850,1100,4.1620
1985-08-02 00:40:00 UTC,2446279.527778,25.7150,-84.8850,1100,4.1700
1985-08-02 01:00:00 UTC,2446279.541667,25.7150,-84.8850,1100,4.1680
1985-08-02 01:20:00 UTC,2446279.555556,25.7150,-84.8850,1100,4.1420
1985-08-02 01:40:00 UTC,2446279.569444,25.7150,-84.8850,1100,4.1400
1985-08-02 02:00:00 UTC,2446279.583333,25.7150,-84.8850,1100,4.1400
1985-08-02 02:20:00 UTC,2446279.597222,25.7150,-84.8850,1100,4.1400
1985-08-02 02:40:00 UTC,2446279.611111,25.7150,-84.8850,1100,4.1400
1985-08-02 03:00:00 UTC,2446279.625000,25.7150,-84.8850,1100,4.1510
1985-08-02 03:20:00 UTC,2446279.638889,25.7150,-84.8850,1100,4.1450
1985-08-02 03:40:00 UTC,2446279.652778,25.7150,-84.8850,1100,4.1500
1985-08-02 04:00:00 UTC,2446279.666667,25.7150,-84.8850,1100,4.1390
1985-08-02 04:20:00 UTC,2446279.680556,25.7150,-84.8850,1100,4.1490
1985-08-02 04:40:00 UTC,2446279.694444,25.7150,-84.8850,1100,4.1680
1985-08-02 05:00:00 UTC,2446279.708333,25.7150,-84.8850,1100,4.1700
1985-08-02 05:20:00 UTC,2446279.722222,25.7150,-84.8850,1100,4.1880
1985-08-02 05:40:00 UTC,2446279.736111,25.7150,-84.8850,1100,4.2000
1985-08-02 06:00:00 UTC,2446279.750000,25.7150,-84.8850,1100,4.2110
1985-08-02 06:20:00 UTC,2446279.763889,25.7150,-84.8850,1100,4.1990
1985-08-02 06:40:00 UTC,2446279.777778,25.7150,-84.8850,1100,4.2000
1985-08-02 07:00:00 UTC,2446279.791667,25.7150,-84.8850,1100,4.2010
1985-08-02 07:20:00 UTC,2446279.805556,25.7150,-84.8850,1100,4.2300
1985-08-02 07:40:00 UTC,2446279.819444,25.7150,-84.8850,1100,4.2080
1985-08-02 08:00:00 UTC,2446279.833333,25.7150,-84.8850,1100,4.1990
1985-08-02 08:20:00 UTC,2446279.847222,25.7150,-84.8850,1100,4.2000
1985-08-02 08:40:00 UTC,2446279.861111,25.7150,-84.8850,1100,4.2000
1985-08-02 09:00:00 UTC,2446279.875000,25.7150,-84.8850,1100,4.1880
1985-08-02 09:20:00 UTC,2446279.888889,25.7150,-84.8850,1100,4.1970
1985-08-02 09:40:00 UTC,2446279.902778,25.7150,-84.8850,1100,4.1780
1985-08-02 10:00:00 UTC,2446279.916667,25.7150,-84.8850,1100,4.1660
1985-08-02 10:20:00 UTC,2446279.930556,25.7150,-84.8850,1100,4.1410
1985-08-02 10:40:00 UTC,2446279.944444,25.7150,-84.8850,1100,4.1390
1985-08-02 11:00:00 UTC,2446279.958333,25.7150,-84.8850,1100,4.1180
1985-08-02 11:20:00 UTC,2446279.972222,25.7150,-84.8850,1100,4.1200
1985-08-02 11:40:00 UTC,2446279.986111,25.7150,-84.8850,1100,4.1180
1985-08-02 12:00:00 UTC,2446280.000000,25.7150,-84.8850,1100,4.1020
1985-08-02 12:20:00 UTC,2446280.013889,25.7150,-84.8850,1100,4.1200
1985-08-02 12:40:00 UTC,2446280.027778,25.7150,-84.8850,1100,4.1190
1985-08-02 13:00:00 UTC,2446280.041667,25.7150,-84.8850,1100,4.1080
1985-08-02 13:20:00 UTC,2446280.055556,25.7150,-84.8850,1100,4.1200
1985-08-02 13:40:00 UTC,2446280.069444,25.7150,-84.8850,1100,4.1430
1985-08-02 14:00:00 UTC,2446280.083333,25.7150,-84.8850,1100,4.1180
1985-08-02 14:20:00 UTC,2446280.097222,25.7150,-84.8850,1100,4.1160
1985-08-02 14:40:00 UTC,2446280.111111,25.7150,-84.8850,1100,4.1190
1985-08-02 15:00:00 UTC,2446280.125000,25.7150,-84.8850,1100,4.0980
1985-08-02 15:20:00 UTC,2446280.138889,25.7150,-84.8850,1100,4.1000
1985-08-02 15:40:00 UTC,2446280.152778,25.7150,-84.8850,1100,4.0980
1985-08-02 16:00:00 UTC,2446280.166667,25.7150,-84.8850,1100,4.0710
1985-08-02 16:20:00 UTC,2446280.180556,25.7150,-84.8850,1100,4.0900
1985-08-02 16:40:00 UTC,2446280.194444,25.7150,-84.8850,1100,4.0890
1985-08-02 17:00:00 UTC,2446280.208333,25.7150,-84.8850,1100,4.0780
1985-08-02 17:20:00 UTC,2446280.222222,25.7150,-84.8850,1100,4.0900
1985-08-02 17:40:00 UTC,2446280.236111,25.7150,-84.8850,1100,4.0910
1985-08-02 18:00:00 UTC,2446280.250000,25.7150,-84.8850,1100,4.0960
1985-08-02 18:20:00 UTC,2446280.263889,25.7150,-84.8850,1100,4.0900
1985-08-02 18:40:00 UTC,2446280.277778,25.7150,-84.8850,1100,4.1010
1985-08-02 19:00:00 UTC,2446280.291667,25.7150,-84.8850,1100,4.0880
1985-08-02 19:20:00 UTC,2446280.305556,25.7150,-84.8850,1100,4.0980
1985-08-02 19:40:00 UTC,2446280.319444,25.7150,-84.8850,1100,4.1240
1985-08-02 20:00:00 UTC,2446280.333333,25.7150,-84.8850,1100,4.1200
1985-08-02 20:20:00 UTC,2446280.347222,25.7150,-84.8850,1100,4.1160
1985-08-02 20:40:00 UTC,2446280.361111,25.7150,-84.8850,1100,4.1210
1985-08-02 21:00:00 UTC,2446280.375000,25.7150,-84.8850,1100,4.1200
1985-08-02 21:20:00 UTC,2446280.388889,25.7150,-84.8850,1100,4.1160
1985-08-02 21:40:00 UTC,2446280.402778,25.7150,-84.8850,1100,4.1200
1985-08-02 22:00:00 UTC,2446280.416667,25.7150,-84.8850,1100,4.1200
1985-08-02 22:20:00 UTC,2446280.430556,25.7150,-84.8850,1100,4.1200
1985-08-02 22:40:00 UTC,2446280.444444,25.7150,-84.8850,1100,4.1270
1985-08-02 23:00:00 UTC,2446280.458333,25.7150,-84.8850,1100,4.1250
1985-08-02 23:20:00 UTC,2446280.472222,25.7150,-84.8850,1100,4.1410
1985-08-02 23:40:00 UTC,2446280.486111,25.7150,-84.8850,1100,4.1180
1985-08-03 00:00:00 UTC,2446280.500000,25.7150,-84.8850,1100,4.1200
1985-08-03 00:20:00 UTC,2446280.513889,25.7150,-84.8850,1100,4.1200
1985-08-03 00:40:00 UTC,2446280.527778,25.7150,-84.8850,1100,4.1200
1985-08-03 01:00:00 UTC,2446280.541667,25.7150,-84.8850,1100,4.1200
1985-08-03 01:20:00 UTC,2446280.555556,25.7150,-84.8850,1100,4.1200
1985-08-03 01:40:00 UTC,2446280.569444,25.7150,-84.8850,1100,4.0980
1985-08-03 02:00:00 UTC,2446280.583333,25.7150,-84.8850,1100,4.0990
1985-08-03 02:20:00 UTC,2446280.597222,25.7150,-84.8850,1100,4.1210
1985-08-03 02:40:00 UTC,2446280.611111,25.7150,-84.8850,1100,4.1120
1985-08-03 03:00:00 UTC,2446280.625000,25.7150,-84.8850,1100,4.0990
1985-08-03 03:20:00 UTC,2446280.638889,25.7150,-84.8850,1100,4.1220
1985-08-03 03:40:00 UTC,2446280.652778,25.7150,-84.8850,1100,4.1410
1985-08-03 04:00:00 UTC,2446280.666667,25.7150,-84.8850,1100,4.1470
1985-08-03 04:20:00 UTC,2446280.680556,25.7150,-84.8850,1100,4.1500
1985-08-03 04:40:00 UTC,2446280.694444,25.7150,-84.8850,1100,4.1370
1985-08-03 05:00:00 UTC,2446280.708333,25.7150,-84.8850,1100,4.1350
1985-08-03 05:20:00 UTC,2446280.722222,25.7150,-84.8850,1100,4.1400
1985-08-03 05:40:00 UTC,2446280.736111,25.7150,-84.8850,1100,4.1400
1985-08-03 06:00:00 UTC,2446280.750000,25.7150,-84.8850,1100,4.1400
1985-08-03 06:20:00 UTC,2446280.763889,25.7150,-84.8850,1100,4.1510
1985-08-03 06:40:00 UTC,2446280.777778,25.7150,-84.8850,1100,4.1580
1985-08-03 07:00:00 UTC,2446280.791667,25.7150,-84.8850,1100,4.1710
1985-08-03 07:20:00 UTC,2446280.805556,25.7150,-84.8850,1100,4.1490
1985-08-03 07:40:00 UTC,2446280.819444,25.7150,-84.8850,1100,4.1390
1985-08-03 08:00:00 UTC,2446280.833333,25.7150,-84.8850,1100,4.1190
1985-08-03 08:20:00 UTC,2446280.847222,25.7150,-84.8850,1100,4.1410
1985-08-03 08:40:00 UTC,2446280.861111,25.7150,-84.8850,1100,4.1390
1985-08-03 09:00:00 UTC,2446280.875000,25.7150,-84.8850,1100,4.1470
1985-08-03 09:20:00 UTC,2446280.888889,25.7150,-84.8850,1100,4.1500
1985-08-03 09:40:00 UTC,2446280.902778,25.7150,-84.8850,1100,4.1600
1985-08-03 10:00:00 UTC,2446280.916667,25.7150,-84.8850,1100,4.1550
1985-08-03 10:20:00 UTC,2446280.930556,25.7150,-84.8850,1100,4.1500
1985-08-03 10:40:00 UTC,2446280.944444,25.7150,-84.8850,1100,4.1300
1985-08-03 11:00:00 UTC,2446280.958333,25.7150,-84.8850,1100,4.1340
1985-08-03 11:20:00 UTC,2446280.972222,25.7150,-84.8850,1100,4.1510
1985-08-03 11:40:00 UTC,2446280.986111,25.7150,-84.8850,1100,4.1510
1985-08-03 12:00:00 UTC,2446281.000000,25.7150,-84.8850,1100,4.1420
1985-08-03 12:20:00 UTC,2446281.013889,25.7150,-84.8850,1100,4.1400
1985-08-03 12:40:00 UTC,2446281.027778,25.7150,-84.8850,1100,4.1460
1985-08-03 13:00:00 UTC,2446281.041667,25.7150,-84.8850,1100,4.1420
1985-08-03 13:20:00 UTC,2446281.055556,25.7150,-84.8850,1100,4.1400
1985-08-03 13:40:00 UTC,2446281.069444,25.7150,-84.8850,1100,4.1420
1985-08-03 14:00:00 UTC,2446281.083333,25.7150,-84.8850,1100,4.1200
1985-08-03 14:20:00 UTC,2446281.097222,25.7150,-84.8850,1100,4.1450
1985-08-03 14:40:00 UTC,2446281.111111,25.7150,-84.8850,1100,4.1260
1985-08-03 15:00:00 UTC,2446281.125000,25.7150,-84.8850,1100,4.1200
1985-08-03 15:20:00 UTC,2446281.138889,25.7150,-84.8850,1100,4.1240
1985-08-03 15:40:00 UTC,2446281.152778,25.7150,-84.8850,1100,4.1250
1985-08-03 16:00:00 UTC,2446281.166667,25.7150,-84.8850,1100,4.1400
1985-08-03 16:20:00 UTC,2446281.180556,25.7150,-84.8850,1100,4.1400
1985-08-03 16:40:00 UTC,2446281.194444,25.7150,-84.8850,1100,4.1260
1985-08-03 17:00:00 UTC,2446281.208333,25.7150,-84.8850,1100,4.1200
1985-08-03 17:20:00 UTC,2446281.222222,25.7150,-84.8850,1100,4.1200
1985-08-03 17:40:00 UTC,2446281.236111,25.7150,-84.8850,1100,4.1220
1985-08-03 18:00:00 UTC,2446281.250000,25.7150,-84.8850,1100,4.1000
1985-08-03 18:20:00 UTC,2446281.263889,25.7150,-84.8850,1100,4.1210
1985-08-03 18:40:00 UTC,2446281.277778,25.7150,-84.8850,1100,4.0920
1985-08-03 19:00:00 UTC,2446281.291667,25.7150,-84.8850,1100,4.0900
1985-08-03 19:20:00 UTC,2446281.305556,25.7150,-84.8850,1100,4.1020
1985-08-03 19:40:00 UTC,2446281.319444,25.7150,-84.8850,1100,4.1010
1985-08-03 20:00:00 UTC,2446281.333333,25.7150,-84.8850,1100,4.0900
1985-08-03 20:20:00 UTC,2446281.347222,25.7150,-84.8850,1100,4.1020
1985-08-03 20:40:00 UTC,2446281.361111,25.7150,-84.8850,1100,4.0920
1985-08-03 21:00:00 UTC,2446281.375000,25.7150,-84.8850,1100,4.1000
1985-08-03 21:20:00 UTC,2446281.388889,25.7150,-84.8850,1100,4.1000
1985-08-03 21:40:00 UTC,2446281.402778,25.7150,-84.8850,1100,4.0930
1985-08-03 22:00:00 UTC,2446281.416667,25.7150,-84.8850,1100,4.0900
1985-08-03 22:20:00 UTC,2446281.430556,25.7150,-84.8850,1100,4.0900
1985-08-03 22:40:00 UTC,2446281.444444,25.7150,-84.8850,1100,4.0740
1985-08-03 23:00:00 UTC,2446281.458333,25.7150,-84.8850,1100,4.0900
1985-08-03 23:20:00 UTC,2446281.472222,25.7150,-84.8850,1100,4.0900
1985-08-03 23:40:00 UTC,2446281.486111,25.7150,-84.8850,1100,4.0900
1985-08-04 00:00:00 UTC,2446281.500000,25.7150,-84.8850,1100,4.0900
1985-08-04 00:20:00 UTC,2446281.513889,25.7150,-84.8850,1100,4.1010
1985-08-04 00:40:00 UTC,2446281.527778,25.7150,-84.8850,1100,4.0900
1985-08-04 01:00:00 UTC,2446281.541667,25.7150,-84.8850,1100,4.0900
1985-08-04 01:20:00 UTC,2446281.555556,25.7150,-84.8850,1100,4.0750
1985-08-04 01:40:00 UTC,2446281.569444,25.7150,-84.8850,1100,4.0980
1985-08-04 02:00:00 UTC,2446281.583333,25.7150,-84.8850,1100,4.0670
1985-08-04 02:20:00 UTC,2446281.597222,25.7150,-84.8850,1100,4.0910
1985-08-04 02:40:00 UTC,2446281.611111,25.7150,-84.8850,1100,4.0990
1985-08-04 03:00:00 UTC,2446281.625000,25.7150,-84.8850,1100,4.1020
1985-08-04 03:20:00 UTC,2446281.638889,25.7150,-84.8850,1100,4.1340
1985-08-04 03:40:00 UTC,2446281.652778,25.7150,-84.8850,1100,4.1400
1985-08-04 04:00:00 UTC,2446281.666667,25.7150,-84.8850,1100,4.1190
1985-08-04 04:20:00 UTC,2446281.680556,25.7150,-84.8850,1100,4.1420
1985-08-04 04:40:00 UTC,2446281.694444,25.7150,-84.8850,1100,4.1400
1985-08-04 05:00:00 UTC,2446281.708333,25.7150,-84.8850,1100,4.1520
1985-08-04 05:20:00 UTC,2446281.722222,25.7150,-84.8850,1100,4.1610
1985-08-04 05:40:00 UTC,2446281.736111,25.7150,-84.8850,1100,4.1800
1985-08-04 06:00:00 UTC,2446281.750000,25.7150,-84.8850,1100,4.1470
1985-08-04 06:20:00 UTC,2446281.763889,25.7150,-84.8850,1100,4.1580
1985-08-04 06:40:00 UTC,2446281.777778,25.7150,-84.8850,1100,4.1690
1985-08-04 07:00:00 UTC,2446281.791667,25.7150,-84.8850,1100,4.1460
1985-08-04 07:20:00 UTC,2446281.805556,25.7150,-84.8850,1100,4.1510
1985-08-04 07:40:00 UTC,2446281.819444,25.7150,-84.8850,1100,4.1410
1985-08-04 08:00:00 UTC,2446281.833333,25.7150,-84.8850,1100,4.1520
1985-08-04 08:20:00 UTC,2446281.847222,25.7150,-84.8850,1100,4.1500
1985-08-04 08:40:00 UTC,2446281.861111,25.7150,-84.8850,1100,4.1500
1985-08-04 09:00:00 UTC,2446281.875000,25.7150,-84.8850,1100,4.1170
1985-08-04 09:20:00 UTC,2446281.888889,25.7150,-84.8850,1100,4.1460
1985-08-04 09:40:00 UTC,2446281.902778,25.7150,-84.8850,1100,4.1690
1985-08-04 10:00:00 UTC,2446281.916667,25.7150,-84.8850,1100,4.1350
1985-08-04 10:20:00 UTC,2446281.930556,25.7150,-84.8850,1100,4.1460
1985-08-04 10:40:00 UTC,2446281.944444,25.7150,-84.8850,1100,4.1500
1985-08-04 11:00:00 UTC,2446281.958333,25.7150,-84.8850,1100,4.1150
1985-08-04 11:20:00 UTC,2446281.972222,25.7150,-84.8850,1100,4.1200
1985-08-04 11:40:00 UTC,2446281.986111,25.7150,-84.8850,1100,4.1200
1985-08-04 12:00:00 UTC,2446282.000000,25.7150,-84.8850,1100,4.1570
1985-08-04 12:20:00 UTC,2446282.013889,25.7150,-84.8850,1100,4.1780
1985-08-04 12:40:00 UTC,2446282.027778,25.7150,-84.8850,1100,4.1800
1985-08-04 13:00:00 UTC,2446282.041667,25.7150,-84.8850,1100,4.1680
1985-08-04 13:20:00 UTC,2446282.055556,25.7150,-84.8850,1100,4.1690
1985-08-04 13:40:00 UTC,2446282.069444,25.7150,-84.8850,1100,4.1790
1985-08-04 14:00:00 UTC,2446282.083333,25.7150,-84.8850,1100,4.1680
1985-08-04 14:20:00 UTC,2446282.097222,25.7150,-84.8850,1100,4.1590
1985-08-04 14:40:00 UTC,2446282.111111,25.7150,-84.8850,1100,4.1410
1985-08-04 15:00:00 UTC,2446282.125000,25.7150,-84.8850,1100,4.1170
1985-08-04 15:20:00 UTC,2446282.138889,25.7150,-84.8850,1100,4.1180
1985-08-04 15:40:00 UTC,2446282.152778,25.7150,-84.8850,1100,4.1380
1985-08-04 16:00:00 UTC,2446282.166667,25.7150,-84.8850,1100,4.1200
1985-08-04 16:20:00 UTC,2446282.180556,25.7150,-84.8850,1100,4.1030
1985-08-04 16:40:00 UTC,2446282.194444,25.7150,-84.8850,1100,4.1230
1985-08-04 17:00:00 UTC,2446282.208333,25.7150,-84.8850,1100,4.1350
1985-08-04 17:20:00 UTC,2446282.222222,25.7150,-84.8850,1100,4.1510
1985-08-04 17:40:00 UTC,2446282.236111,25.7150,-84.8850,1100,4.1390
1985-08-04 18:00:00 UTC,2446282.250000,25.7150,-84.8850,1100,4.1420
1985-08-04 18:20:00 UTC,2446282.263889,25.7150,-84.8850,1100,4.1220
1985-08-04 18:40:00 UTC,2446282.277778,25.7150,-84.8850,1100,4.1520
1985-08-04 19:00:00 UTC,2446282.291667,25.7150,-84.8850,1100,4.1050
1985-08-04 19:20:00 UTC,2446282.305556,25.7150,-84.8850,1100,4.1160
1985-08-04 19:40:00 UTC,2446282.319444,25.7150,-84.8850,1100,4.1410
1985-08-04 20:00:00 UTC,2446282.333333,25.7150,-84.8850,1100,4.1200
1985-08-04 20:20:00 UTC,2446282.347222,25.7150,-84.8850,1100,4.1030
1985-08-04 20:40:00 UTC,2446282.361111,25.7150,-84.8850,1100,4.1000
1985-08-04 21:00:00 UTC,2446282.375000,25.7150,-84.8850,1100,4.1000
1985-08-04 21:20:00 UTC,2446282.388889,25.7150,-84.8850,1100,4.1000
1985-08-04 21:40:00 UTC,2446282.402778,25.7150,-84.8850,1100,4.1000
1985-08-04 22:00:00 UTC,2446282.416667,25.7150,-84.8850,1100,4.1100
1985-08-04 22:20:00 UTC,2446282.430556,25.7150,-84.8850,1100,4.1200
1985-08-04 22:40:00 UTC,2446282.444444,25.7150,-84.8850,1100,4.1190
1985-08-04 23:00:00 UTC,2446282.458333,25.7150,-84.8850,1100,4.1080
1985-08-04 23:20:00 UTC,2446282.472222,25.7150,-84.8850,1100,4.1210
1985-08-04 23:40:00 UTC,2446282.486111,25.7150,-84.8850,1100,4.0870
1985-08-05 00:00:00 UTC,2446282.500000,25.7150,-84.8850,1100,4.1110
1985-08-05 00:20:00 UTC,2446282.513889,25.7150,-84.8850,1100,4.1210
1985-08-05 00:40:00 UTC,2446282.527778,25.7150,-84.8850,1100,4.0980
1985-08-05 01:00:00 UTC,2446282.541667,25.7150,-84.8850,1100,4.1100
1985-08-05 01:20:00 UTC,2446282.555556,25.7150,-84.8850,1100,4.1200
1985-08-05 01:40:00 UTC,2446282.569444,25.7150,-84.8850,1100,4.1210
1985-08-05 02:00:00 UTC,2446282.583333,25.7150,-84.8850,1100,4.1480
1985-08-05 02:20:00 UTC,2446282.597222,25.7150,-84.8850,1100,4.1420
1985-08-05 02:40:00 UTC,2446282.611111,25.7150,-84.8850,1100,4.1400
1985-08-05 03:00:00 UTC,2446282.625000,25.7150,-84.8850,1100,4.1390
1985-08-05 03:20:00 UTC,2446282.638889,25.7150,-84.8850,1100,4.1490
1985-08-05 03:40:00 UTC,2446282.652778,25.7150,-84.8850,1100,4.1170
1985-08-05 04:00:00 UTC,2446282.666667,25.7150,-84.8850,1100,4.1470
1985-08-05 04:20:00 UTC,2446282.680556,25.7150,-84.8850,1100,4.1500
1985-08-05 04:40:00 UTC,2446282.694444,25.7150,-84.8850,1100,4.1390
1985-08-05 05:00:00 UTC,2446282.708333,25.7150,-84.8850,1100,4.1550
1985-08-05 05:20:00 UTC,2446282.722222,25.7150,-84.8850,1100,4.1700
1985-08-05 05:40:00 UTC,2446282.736111,25.7150,-84.8850,1100,4.1710
1985-08-05 06:00:00 UTC,2446282.750000,25.7150,-84.8850,1100,4.1910
1985-08-05 06:20:00 UTC,2446282.763889,25.7150,-84.8850,1100,4.2010
1985-08-05 06:40:00 UTC,2446282.777778,25.7150,-84.8850,1100,4.2110
1985-08-05 07:00:00 UTC,2446282.791667,25.7150,-84.8850,1100,4.2250
1985-08-05 07:20:00 UTC,2446282.805556,25.7150,-84.8850,1100,4.2290
1985-08-05 07:40:00 UTC,2446282.819444,25.7150,-84.8850,1100,4.2230
1985-08-05 08:00:00 UTC,2446282.833333,25.7150,-84.8850,1100,4.2580
1985-08-05 08:20:00 UTC,2446282.847222,25.7150,-84.8850,1100,4.2600
1985-08-05 08:40:00 UTC,2446282.861111,25.7150,-84.8850,1100,4.2610
1985-08-05 09:00:00 UTC,2446282.875000,25.7150,-84.8850,1100,4.2530
1985-08-05 09:20:00 UTC,2446282.888889,25.7150,-84.8850,1100,4.2280
1985-08-05 09:40:00 UTC,2446282.902778,25.7150,-84.8850,1100,4.2080
1985-08-05 10:00:00 UTC,2446282.916667,25.7150,-84.8850,1100,4.2100
1985-08-05 10:20:00 UTC,2446282.930556,25.7150,-84.8850,1100,4.1990
1985-08-05 10:40:00 UTC,2446282.944444,25.7150,-84.8850,1100,4.1710
1985-08-05 11:00:00 UTC,2446282.958333,25.7150,-84.8850,1100,4.1800
1985-08-05 11:20:00 UTC,2446282.972222,25.7150,-84.8850,1100,4.1690
1985-08-05 11:40:00 UTC,2446282.986111,25.7150,-84.8850,1100,4.1460
1985-08-05 12:00:00 UTC,2446283.000000,25.7150,-84.8850,1100,4.1660
1985-08-05 12:20:00 UTC,2446283.013889,25.7150,-84.8850,1100,4.1490
1985-08-05 12:40:00 UTC,2446283.027778,25.7150,-84.8850,1100,4.1380
1985-08-05 13:00:00 UTC,2446283.041667,25.7150,-84.8850,1100,4.1190
1985-08-05 13:20:00 UTC,2446283.055556,25.7150,-84.8850,1100,4.1210
1985-08-05 13:40:00 UTC,2446283.069444,25.7150,-84.8850,1100,4.1520
1985-08-05 14:00:00 UTC,2446283.083333,25.7150,-84.8850,1100,4.1650
1985-08-05 14:20:00 UTC,2446283.097222,25.7150,-84.8850,1100,4.1700
1985-08-05 14:40:00 UTC,2446283.111111,25.7150,-84.8850,1100,4.1760
1985-08-05 15:00:00 UTC,2446283.125000,25.7150,-84.8850,1100,4.1770
1985-08-05 15:20:00 UTC,2446283.138889,25.7150,-84.8850,1100,4.1690
1985-08-05 15:40:00 UTC,2446283.152778,25.7150,-84.8850,1100,4.1560
1985-08-05 16:00:00 UTC,2446283.166667,25.7150,-84.8850,1100,4.1700
1985-08-05 16:20:00 UTC,2446283.180556,25.7150,-84.8850,1100,4.1800